Overview Statistics Trail Chart Weather Telemetry Raw packets
 

This is the latest recevied weather packets stored in our database for station/object KC4JIR. If no packets are shown the sender has not sent any weather packets the latest 10 day(s).

<< 73 74 75 76 77 78 79 >>
Time Temp. Humidity Pressure Rain* Wind** Luminosity Snow
1788109469 31.67° C 73% 1018.4 hPa 0 mm - 193 W/m² -
1788109167 31.67° C 80% 1018.2 hPa 0 mm - 865 W/m² -
1788108863 30.56° C 78% 1018.4 hPa 0 mm - 862 W/m² -
1788108559 30.56° C 77% 1018.6 hPa 0 mm - 829 W/m² -
1788108255 31.11° C 76% 1018.6 hPa 0 mm - 183 W/m² -
1788107967 31.11° C 75% 1018.8 hPa 0 mm - 775 W/m² -
1788107647 30.56° C 77% 1018.6 hPa 0 mm - 874 W/m² -
1788107347 31.11° C 77% 1018.6 hPa 0 mm - 909 W/m² -
1788107043 30.56° C 77% 1018.7 hPa 0 mm - 878 W/m² -
1788106737 30.56° C 78% 1018.8 hPa 0 mm - 419 W/m² -
1788106436 30° C 80% 1018.8 hPa 0 mm - 929 W/m² -
1788106132 29.44° C 79% 1018.9 hPa 0 mm - 988 W/m² -
1788105828 28.89° C 84% 1018.9 hPa 0 mm - 964 W/m² -
1788105523 28.89° C 83% 1019.1 hPa 0 mm - 131 W/m² -
1788105220 30° C 81% 1019.1 hPa 0 mm - 307 W/m² -
1788104919 28.89° C 85% 1019 hPa 0 mm - 983 W/m² -
1788104615 28.33° C 84% 1018.9 hPa 0 mm - 636 W/m² -
1788104312 27.78° C 89% 1019.2 hPa 0 mm - 272 W/m² -
1788104007 27.22° C 91% 1019.3 hPa 0 mm - 155 W/m² -
1788103706 27.78° C 93% 1019 hPa 0 mm - 141 W/m² -
1788103401 27.78° C 91% 1019 hPa 0 mm - 75 W/m² -
1788103095 27.78° C 92% 1019.1 hPa 0 mm - 117 W/m² -
1788102794 27.78° C 92% 1019.2 hPa 0 mm - 111 W/m² -
1788102490 27.78° C 91% 1019.2 hPa 0 mm - 128 W/m² -
1788102189 27.78° C 91% 1019.1 hPa 0 mm - 132 W/m² -

* Rain latest hour (hover to see other rain measurements)
** Current wind speed in m/s (hover to see current wind gust speed)